TimeCST,TemperatureF,Dew PointF,Humidity,Sea Level PressureIn,VisibilityMPH,Wind Direction,Wind SpeedMPH,Gust SpeedMPH,PrecipitationIn,Events,Conditions,WindDirDegrees,DateUTC
12:54 AM,28.0,21.0,75,30.17,10.0,Calm,Calm,-,N/A,,Clear,0,2014-01-19 06:54:00
1:54 AM,24.1,19.9,84,30.19,10.0,Calm,Calm,-,N/A,,Clear,0,2014-01-19 07:54:00
2:54 AM,24.1,19.9,84,30.21,10.0,WSW,3.5,-,N/A,,Clear,250,2014-01-19 08:54:00
3:54 AM,24.1,19.9,84,30.20,10.0,Calm,Calm,-,N/A,,Clear,0,2014-01-19 09:54:00
4:54 AM,23.0,19.0,85,30.20,10.0,SW,3.5,-,N/A,,Clear,220,2014-01-19 10:54:00
5:54 AM,21.9,19.0,89,30.18,10.0,SSW,3.5,-,N/A,,Clear,210,2014-01-19 11:54:00
6:54 AM,25.0,19.9,81,30.19,10.0,SW,8.1,-,N/A,,Clear,230,2014-01-19 12:54:00
7:54 AM,24.1,19.9,84,30.18,10.0,SSW,6.9,-,N/A,,Clear,200,2014-01-19 13:54:00
8:54 AM,30.9,25.0,79,30.15,10.0,SSW,9.2,-,N/A,,Clear,200,2014-01-19 14:54:00
9:54 AM,41.0,28.0,60,30.16,10.0,SSW,12.7,-,N/A,,Clear,210,2014-01-19 15:54:00
10:54 AM,48.9,25.0,39,30.12,10.0,SW,18.4,-,N/A,,Clear,220,2014-01-19 16:54:00
11:54 AM,54.0,26.1,34,30.07,10.0,SW,20.7,-,N/A,,Clear,220,2014-01-19 17:54:00
12:54 PM,60.1,24.1,25,30.00,10.0,SW,21.9,31.1,N/A,,Clear,220,2014-01-19 18:54:00
1:54 PM,63.0,24.1,23,29.96,10.0,SW,23.0,-,N/A,,Clear,220,2014-01-19 19:54:00
2:54 PM,66.0,24.1,20,29.93,10.0,SW,21.9,-,N/A,,Clear,220,2014-01-19 20:54:00
3:54 PM,64.9,24.1,21,29.92,10.0,SW,19.6,-,N/A,,Clear,220,2014-01-19 21:54:00
4:54 PM,62.1,25.0,24,29.93,10.0,SSW,12.7,-,N/A,,Clear,210,2014-01-19 22:54:00
5:54 PM,48.9,25.0,39,29.94,10.0,South,9.2,-,N/A,,Clear,190,2014-01-19 23:54:00
6:54 PM,51.1,25.0,36,29.94,10.0,South,5.8,-,N/A,,Clear,180,2014-01-20 00:54:00
7:54 PM,46.0,25.0,44,29.94,10.0,SSW,6.9,-,N/A,,Clear,200,2014-01-20 01:54:00
8:54 PM,39.9,25.0,55,29.93,10.0,SSW,9.2,-,N/A,,Clear,210,2014-01-20 02:54:00
9:54 PM,42.1,25.0,51,29.91,10.0,South,5.8,-,N/A,,Clear,190,2014-01-20 03:54:00
10:54 PM,45.0,26.1,48,29.89,10.0,SSW,10.4,-,N/A,,Clear,200,2014-01-20 04:54:00
11:54 PM,44.1,25.0,47,29.89,10.0,SW,5.8,-,N/A,,Clear,220,2014-01-20 05:54:00